#timestamp,LO_Frequency,Hit 
1505444415.6,286047014.9,N
1505444435.4,286047014.9,N
1505444455.3,286047020.0,N
1505444475.1,286047021.8,N
1505444495.8,286047021.4,N
1505444515.7,286047022.6,N
1505444535.5,286047021.6,N
1505444555.3,286047021.4,N
1505444575.2,286047018.0,N
1505444595.9,286047020.7,N
1505444615.7,286047019.8,N
1505444635.5,286047015.8,N
1505444655.4,286047018.8,N
1505444675.2,286047018.9,N
1505444695.0,286047019.0,N
1505444695.9,286047019.0,N
1505444715.8,286047022.1,P
1505444735.6,286047006.6,N
1505444755.5,286047007.2,N
1505444775.3,286047004.8,N
1505444795.1,286047004.2,N
1505444815.8,286047007.6,N
1505444835.7,286047007.5,N
1505444855.5,286047005.5,N
1505444875.3,286047006.8,N
1505444895.2,286047012.0,N
1505444915.9,286047011.7,N
1505444935.7,286047009.1,N
1505444955.6,286047010.7,N
1505444975.4,286047005.3,N
1505444995.2,286047001.1,N
1505445015.1,286046997.9,N
1505445016.0,286046997.9,N
1505445035.8,286046996.8,N
1505445055.6,286046999.2,N
1505445075.5,286046995.3,N
1505445095.3,286046995.0,N
1505445115.1,286046998.9,N
1505445135.8,286046996.7,N
1505445155.7,286047000.2,N
1505445175.5,286046998.8,N
1505445195.3,286046998.9,N
1505445215.2,286047001.6,N
1505445235.9,286047002.5,N
1505445255.7,286046993.3,N
1505445275.6,286046990.4,N
1505445295.4,286046988.4,N
1505445315.2,286046991.3,N
1505445335.1,286046994.1,N
1505445336.0,286046994.1,N
1505445355.8,286046991.8,N
1505445375.6,286046995.7,N
1505445395.5,286046997.6,N
1505445415.3,286046996.0,N
1505445435.1,286046999.6,N
1505445455.8,286047002.4,N
1505445475.7,286046998.8,N
1505445495.5,286046997.8,N
1505445515.3,286047001.1,N
1505445535.2,286046996.6,N
1505445555.9,286046996.3,N
1505445575.7,286046990.6,N
1505445595.6,286046988.4,P
1505445615.4,286046989.5,N
1505445635.2,286046986.6,P
1505445655.1,286046985.8,P
1505445656.0,286046985.8,P
1505445675.8,286047000.7,N
1505445695.6,286047005.8,N
1505445715.5,286047007.1,N
1505445735.3,286047003.5,N
1505445755.1,286047004.7,N
1505445775.9,286047009.2,N
1505445795.7,286047009.2,N
1505445815.5,286047005.4,N
1505445835.4,286047003.0,N
1505445855.2,286047006.1,N
1505445875.0,286047010.8,N
1505445875.9,286047010.8,N
1505445895.8,286047009.2,N
1505445915.6,286047003.1,N
1505445935.4,286047002.4,N
1505445955.3,286047002.8,N
1505445975.1,286047000.1,N
1505445976.0,286047000.1,N
1505445995.8,286046998.5,N
1505446015.6,286046997.2,N
1505446035.5,286046998.9,N
1505446055.3,286046997.3,N
1505446075.1,286046998.1,N
1505446095.9,286046999.2,N
1505446115.7,286046997.3,N
1505446135.5,286046989.1,N
1505446155.4,286046986.5,N
1505446175.2,286046988.0,N
1505446195.0,286046988.6,N
1505446195.9,286046988.6,N
1505446215.8,286046996.3,N
1505446235.6,286046999.2,N
1505446255.4,286047001.6,N
1505446275.3,286047001.4,N
1505446295.1,286047006.0,N
1505446296.0,286047006.0,N
1505446315.8,286047004.2,N
1505446335.7,286047006.8,N
1505446355.5,286047004.6,N
1505446375.3,286047007.1,N
1505446395.1,286047007.2,N
1505446415.9,286047007.0,N
1505446435.7,286047004.8,N
1505446455.5,286047003.0,N
1505446475.4,286047007.6,N
1505446495.2,286047010.2,N
1505446515.0,286047013.3,N
1505446515.9,286047013.3,N
1505446535.8,286047012.4,N
1505446555.6,286047011.2,N
1505446575.4,286047012.6,N
1505446595.3,286047013.1,N
1505446615.1,286047011.7,N
1505446616.0,286047011.7,N
1505446635.8,286047012.3,N
1505446655.7,286047010.3,N
1505446675.5,286047010.0,N
1505446695.3,286047008.1,N
1505446715.2,286047010.6,N
1505446735.9,286047011.2,N
1505446755.7,286047011.0,N
1505446775.6,286047017.1,P
1505446795.4,286047005.4,N
1505446815.2,286047004.9,N
1505446835.1,286047005.1,N
1505446836.0,286047005.1,N
1505446855.8,286047003.0,N
1505446875.6,286047002.6,N
1505446895.5,286047004.3,N
1505446915.3,286047004.1,N
1505446935.1,286047003.6,N
1505446955.8,286047002.1,N
1505446975.7,286046999.7,N
1505446995.5,286047000.5,N
1505447015.3,286047001.6,N
1505447035.2,286046999.7,N
1505447055.9,286047002.2,N
1505447075.7,286046999.8,N
1505447095.6,286047001.2,N
1505447115.4,286046992.1,N
1505447135.2,286046992.2,N
1505447155.1,286046995.4,N
1505447156.0,286046995.4,N
1505447175.8,286046995.3,N
1505447195.6,286046997.4,N
1505447215.5,286046998.5,N
1505447235.3,286047004.3,N
1505447255.1,286047001.5,N
1505447275.9,286047001.6,N
1505447295.7,286047001.7,N
1505447315.5,286047002.0,N
1505447335.3,286047002.7,N
1505447355.2,286047000.3,N
1505447375.0,286046998.3,N
1505447375.9,286046998.3,N
1505447395.7,286047002.7,N
1505447415.6,286046999.5,N
1505447435.4,286046998.5,N
1505447455.2,286047000.0,N
1505447475.1,286046996.8,N
1505447476.0,286046996.8,N
1505447495.8,286047000.7,N
1505447515.6,286046998.8,N
1505447535.5,286047002.3,N
1505447555.3,286047004.1,N
1505447575.1,286047004.0,N
1505447595.9,286046999.9,N
1505447615.7,286046995.7,N
1505447635.5,286047000.3,N
1505447655.4,286047000.9,N
1505447675.2,286046998.2,N
1505447695.0,286047000.9,N
1505447695.9,286047000.9,N
1505447715.7,286047004.3,N
1505447735.6,286047002.3,N
1505447755.4,286047000.7,N
1505447775.3,286046993.3,P
1505447795.1,286046996.4,N
1505447796.0,286046996.4,N
1505447815.8,286046999.5,N
1505447835.7,286046996.8,N
1505447855.5,286047000.5,N
1505447875.3,286046995.0,N
1505447895.1,286046997.3,N
1505447915.9,286046995.1,N
1505447935.7,286046992.6,P
1505447955.5,286046994.8,N
1505447975.4,286046994.6,N
1505447995.2,286046996.9,N
